User: anonymous   Login
Location: Gu�tanj
(46.5431°N, 14.9692°E)
Time: 02:37:48
(UTC+00:00)
Language:

Cosmos 962 Rocket - Orbit

View from above orbital plane
View from above orbital plane
View from above satellite
View from above satellite

Ground track
Ground track

The orbit data is extracted from the following two-line orbital elements,

1 10461U 77107B   21127.53730973  .00000030  00000-0  14750-4 0  9998
2 10461  82.9525  38.9298 0034241 131.7013  41.1642 13.76831583185944
Epoch (UTC): 07 May 2021 12:53:43
Eccentricity: 0.0034241
inclination: 82.9525°
perigee height: 950 km
apogee height: 1000 km
right ascension of ascending node: 38.9298°
argument of perigee: 131.7013°
revolutions per day: 13.76831583
mean anomaly at epoch: 41.1642°
orbit number at epoch: 18594

The dashed part of the orbit path shows where the satellite is in the earth's shadow,  

DLR